www.pogodaiklimat.ru

Погода и климат >> Архив погоды >> Нигер >> Диффа


ПОГОДА в Диффе

  • Прогноз погоды в Диффе
  • Монитор погоды в Диффе

АРХИВ ПОГОДЫ в Диффе

Время (UTC), дата Ветер
(напр.,м/с)
 
Видим.   Явления Облачность Т
(С)
Тd
(С)
f
(%)
Тe
(С)
Тes
(С)
Комфортность P
(гПа)
Po
(гПа)
Тmin
(С)
Tmax
(С)
R
(мм)
R24
(мм)
S
(см)
18 11.09 штиль 0 15 км гроза без осадков 6/1 1500 м
[Cb cap Ac trans Ci sp]
+32.4 +23.4 59 +43 +43 опасность
перегрева
1008.9 975.1 +37.5
21 11.09 штиль 0 15 км {гроза} 6/0
[Cs]
+19.4 +24.7 100 +22 +22 комфорт 1010.5 976.9
03 12.09 З 6 15 км 9/0
[Cs]
+25.5 +22.5 83 +33 +33 очень
душно
1010.1 976.6
06 12.09 З 10 15 км 9/0
[Ac As Cs]
+26.4 +23.3 83 +36 +36 очень
душно
1011.1 977.4 +25.4
09 12.09 З 10 15 км 8/0
[Ac trans Ci sp]
+32.5 +24.0 61 +44 +45 опасность
перегрева
1012.3 978.7
12 12.09 ЮЗ 8 15 км 6/1 1500 м
[Cu med, cong Ac trans Ci]
+35.9 +24.9 53 +49 +51 опасность
перегрева
1011.0 977.4
15 12.09 ЮВ 8 15 км 8/3 1500 м
[Cb cap Ac As Ci sp]
+34.3 +24.5 57 +47 +48 опасность
перегрева
1008.5 974.9
18 12.09 ЮЗ 6 15 км зарница {гроза} 8/1 1500 м
[Cb cap Ac As Ci sp]
+29.0 +23.6 73 +40 +40 очень
душно
1009.7 975.8 +37.9
21 12.09 ЮЗ 6 15 км 6/0
[Ac trans Ci sp]
+27.5 +23.2 77 +37 +37 очень
душно
1011.0 977.3
03 13.09 ЮЗ 4 15 км 8/0
[Cs]
+25.5 +23.4 88 +34 +34 очень
душно
1010.1 976.4
06 13.09 З 6 15 км 9/0
[Cs]
+25.5 +24.0 91 +35 +35 очень
душно
1010.8 976.9 +24.9
09 13.09 З 10 15 км 9/0
[Ac cast Cs]
+32.6 +25.0 64 +46 +47 опасность
перегрева
1011.8 978.1
12 13.09 Ю 8 15 км 6/1 1500 м
[Cu med, cong Cs]
+36.2 +24.6 51 +49 +51 опасность
перегрева
1010.5 977.0
15 13.09 ЮВ 6 15 км гроза без осадков 8/3 1500 м
[Cb cap Ac As Ci sp]
+36.4 +25.3 53 +50 +51 опасность
перегрева
1007.8 974.3
18 13.09 штиль 0 15 км {гроза} 8/0
[Ac trans Ci sp]
+31.6 +23.4 62 +42 +42 опасность
перегрева
1008.4 974.6 +37.6
21 13.09 штиль 0 15 км 9/0
[Cs]
+29.8 +25.3 77 +44 +44 опасность
перегрева
1009.4 975.9
03 14.09 ЮЗ 4 10 км 9/0
[Ac As Cs]
+25.3 +21.5 79 +32 +32 очень
душно
1009.2 975.7
06 14.09 З 6 15 км 8/0
[Ac As Cs]
+24.5 +22.3 88 +32 +32 очень
душно
1010.7 976.8 +24.2
09 14.09 З 8 15 км 9/0
[Ac trans Cs]
+31.3 +21.8 57 +40 +42 очень
душно
1011.2 977.6
12 14.09 ЮВ 8 15 км 9/1 1500 м
[Cu med, cong Ac As Cs]
+34.8 +23.9 53 +46 +48 опасность
перегрева
1010.5 977.8
15 14.09 ЮВ 8 15 км 8/1 1500 м
[Cb calv Cs]
+36.0 +23.6 49 +47 +48 опасность
перегрева
1007.5 974.0
18 14.09 ЮЗ 16 15 км зарница 9/3 1500 м
[Cb cap Ac As Cs]
+27.6 +23.3 77 +37 +37 очень
душно
1009.3 975.2 +37.3
21 14.09 штиль 0 15 км {дождь} 9/0
[Ac As Cs]
+26.4 +23.6 85 +36 +36 очень
душно
1010.7 976.9
03 15.09 штиль 0 10 км 9/0
[Ac trans Ci sp]
+25.5 +24.7 95 +36 +36 очень
душно
1010.2 976.7
06 15.09 штиль 0 15 км 9/0
[Ac As Ci sp]
+25.9 +25.2 96 +37 +38 очень
душно
1011.5 977.5 +25.4 0.1
09 15.09 Ю 10 15 км 8/1 1000 м
[Sc Cs]
+31.2 +24.8 69 +44 +45 опасность
перегрева
1011.5 977.7
12 15.09 Ю 8 15 км 8/0
[Ac trans Cs]
+34.1 +24.6 58 +47 +50 опасность
перегрева
1009.5 975.9
15 15.09 ЮЗ 8 15 км 8/3 1500 м
[Cu med, cong Cs]
+35.6 +24.4 53 +48 +49 опасность
перегрева
1007.9 974.4
18 15.09 штиль 0 15 км зарница 9/1 1500 м
[Cb cap Ac As Cs]
+32.0 +25.6 69 +47 +47 опасность
перегрева
1008.2 974.5 +36.4
21 15.09 штиль 0 15 км 9/0
[Ac As Cs]
+29.6 +25.5 79 +44 +44 опасность
перегрева
1009.6 976.3
00 16.09 штиль 0 10 км зарница 9/1 1500 м
[Cb cap Ac und Cs]
+28.0 +24.9 83 +40 +40 очень
душно
1009.5 976.0
03 16.09 Ю 8 10 км гроза, ливневой дождь 10/4 1500 м
[Cb cap Ac As]
+20.7 +20.7 100 +25 +25 комфорт 1009.5 975.7
06 16.09 З 8 15 км слаб. дождь {гроза} 10/0
[Ac As]
+22.4 +22.3 99 +30 +30 очень
душно
1011.1 977.1 +19.5 45
09 16.09 З 8 15 км {дождь} 10/0
[Ac As]
+25.2 +22.7 86 +33 +34 очень
душно
1011.3 977.3
12 16.09 З 8 15 км {дождь} 10/0
[Ac As Cs]
+27.2 +23.8 82 +37 +39 очень
душно
1010.6 976.7 0.2
15 16.09 З 10 15 км 9/0
[Cs]
+29.8 +25.2 76 +43 +43 опасность
перегрева
1007.6 974.8
18 16.09 З 8 15 км 4/0
[Ci sp]
+27.5 +25.1 87 +40 +40 очень
душно
1008.4 974.8 +30.5 0.2
21 16.09 З 6 15 км 6/0
[Ci sp]
+25.9 +23.5 87 +35 +35 очень
душно
1009.1 975.8
00 17.09 З 6 10 км 6/0
[Ac trans Ci sp]
+24.6 +23.6 94 +33 +33 очень
душно
1010.5 976.1
03 17.09 штиль 0 10 км 6/0
[Ci sp]
+24.6 +23.8 95 +33 +33 очень
душно
1010.6 976.6
06 17.09 З 4 15 км 9/0
[Cs]
+24.5 +23.7 95 +33 +34 очень
душно
1010.4 976.3 +24.1 0.2
09 17.09 З 8 15 км 9/0
[Cs]
+27.3 +24.5 85 +39 +41 очень
душно
1011.6 977.6
12 17.09 З 10 15 км 10/0
[Cs]
+32.1 +24.8 65 +45 +46 опасность
перегрева
1009.2 975.4
15 17.09 З 6 15 км 10/0
[Cs]
+33.2 +24.5 60 +46 +48 опасность
перегрева
1007.0 973.3
18 17.09 штиль 0 15 км 6/0
[Ci sp]
+29.3 +25.5 80 +43 +43 опасность
перегрева
1008.0 974.1 +34.6
21 17.09 штиль 0 15 км 8/0
[Ac As Cs]
+27.7 +26.1 91 +42 +42 опасность
перегрева
1009.1 975.3
03 18.09 ЮЗ 4 10 км 9/0
[Ac trans Cs]
+25.8 +25.1 96 +37 +37 очень
душно
1008.9 975.2
06 18.09 ЮВ 6 15 км 10/0
[Ac und]
+25.4 +23.3 88 +34 +34 очень
душно
1010.6 977.7 +25.0
09 18.09 ЮЗ 4 15 км 9/0
[Ac As Cs]
+30.7 +25.0 72 +44 +49 опасность
перегрева
1011.2 977.4
12 18.09 ЮЗ 8 15 км 8/1 1500 м
[Cu med, cong Ac trans Cs]
+33.7 +25.2 61 +48 +50 опасность
перегрева
1010.2 976.5
15 18.09 Ю 6 15 км 6/1 1500 м
[Cb calv Ci sp]
+34.5 +24.7 57 +48 +50 опасность
перегрева
1008.1 974.5

 

Местоположение метеостанции Диффа (Нигер): широта 13.42 долгота 12.78 высота над уровнем моря 305 м.

В архиве по умолчанию представлена погода в Диффе за последнюю неделю. Архивные данные за месяц целиком и за предыдущие месяцы, начиная с января 2011 года, Вы можете получить, выбрав интересующий диапазон дат из раскрывающегося списка и нажав кнопку "Ввод!".


*Определитесь, кто Вы:
робот инопланетянин человек

Внимание! Время в таблицах - всемирное. Для получения местного времени необходимо прибавить поправку, которая равна 1 ч.

Смотрите также архив погоды в соседних городах и на ближайших метеорологических станциях:

Погода в Майне-Сороа (Нигер) (89 км)
Погода в Нгигми (Нигер) (99 км)
Погода в Бол-Бериме (Чад) (212 км)
Погода в Гуре (Нигер) (275 км)
Погода в Нджамене (Чад) (283 км)
Погода в Mao (Чад) (288 км)
Погода в Гомбе (Нигерия) (392 км)
Погода в Зиндере (Нигер) (413 км)
Погода в Магарьа (Нигер) (420 км)
Погода в Гаруа (Камерун) (460 км)

Пояснения к столбцам:

Ветер - указаны скорость ветра в м/с - средняя за 10 мин, порывы в срок и между сроками (в фигурных скобках) и направление, откуда дует ветер: С - северный, СВ - северо-восточный, В - восточный, ЮВ - юго-восточный, Ю - южный, ЮЗ - юго-западный, З - западный, СЗ - северо-западный.
Видимость - горизонтальная дальность видимости в метрах или километрах. При видимости от 1 до 10 км при отсутствии осадков обычно наблюдается дымка, при ухудшении видимости до 1 км и менее - туман. В сухую погоду видимость может ухудшаться дымом, пылью или мглою.
Явления - указаны атмосферные явления, наблюдавшиеся в срок или в последний час перед сроком; фигурными скобками обозначены явления, наблюдавшиеся между сроками (за 1-3 часа до срока); квадратными скобками обозначены град или гололедные отложения с указанием их диаметра в мм.
Облачность - указаны через наклонную черту общая и нижняя облачность в баллах и высота нижней границы облаков в метрах; квадратными скобками обозначены формы облаков: Ci - перистые, Cs - перисто-слоистые, Cc - перисто-кучевые, Ac - высококучевые, As - высокослоистые, Sc - слоисто-кучевые, Ns - слоисто-дождевые, Cu - кучевые, Cb - кучево-дождевые. Подробнее классификацию облаков см. в Атласе облаков (PDF).
T - Температура воздуха - температура, измеренная на высоте 2 м над землей.
Td - Температура точки росы - температура, при понижении до которой содержащийся в воздухе водяной пар достигнет насыщения.
f - Относительная влажность воздуха - влажноcть воздуха, измеренная на высоте 2 м над землей.
Te - Эффективная температура - температура, которую ощущает одетый по сезону человек в тени. Характеристика душности погоды. При расчете учитывается влияние влажности воздуха и скорости ветра на теплоощущения человека.
Tes - Эффективная температура на солнце - температура, которую ощущает человек, с поправкой на солнечный нагрев. Характеристика знойности погоды. Зависит от высоты солнца над горизонтом, облачности и скорости ветра. Ночью, в пасмурную погоду, а также при ветре 12 м/с и более поправка равна нулю.
P - Атмосферное давление - приведенное к уровню моря атмосферное давление.
Po - Атмосферное давление - измеренное на уровне метеостанции атмосферное давление.
Tmin - Минимальная температура - минимум температуры воздуха на высоте 2 м над землей.
Tmax - Максимальная температура - максимум температуры воздуха на высоте 2 м над землей.
R - Количество осадков - Количество выпавших осадков за период времени, мм. При наведении курсора мыши на число - период времени, за который выпало указанное количество осадков.
R24 - Количество осадков - Количество выпавших осадков за 24 часа, мм.
S - Снежный покров - Высота снежного покрова, см. При наведении курсора мыши на число - состояние снежного покрова и степень покрытия местности в баллах.